Weather History for CYXU - December, 2012

Change the Weather History Date:

Wednesday, December 19, 2012

  Actual Average Record
Temperature  
Mean Temperature 34 °F -  
Max Temperature 41 °F 30 °F 44 °F (2002)
Min Temperature 28 °F 19 °F -4 °F (2004)
Degree Days  
Heating Degree Days 30    
Moisture  
Dew Point 31 °F    
Average Humidity 91    
Maximum Humidity 100    
Minimum Humidity 75    
Precipitation  
Precipitation 0.00 in - - ()
Sea Level Pressure  
Sea Level Pressure 30.00 in    
Wind  
Wind Speed 3 mph ()    
Max Wind Speed 10 mph    
Max Gust Speed -    
Visibility 8.6 miles    
Events      
Averages and records for this station are not official NWS values.
T = Trace of Precipitation, MM = Missing Value Source: Averaged Metar Reports

Daily Weather History Graph

Daily Weather History Graph

Search for Another Location

Airport or City:

Trip Planner

Search our weather history database for the weather conditions in past years. The results will help you decide how hot, cold, wet, or windy it might be!

Date:

Astronomy

Dec. 19, 2012 Rise Set
Actual Time 7:51 AM EST 4:52 PM EST
Civil Twilight 7:19 AM EST 5:24 PM EST
Nautical Twilight 6:43 AM EST 6:00 PM EST
Astronomical Twilight 6:08 AM EST 6:35 PM EST
Moon 11:50 AM EST (12/19) No Moon Set
Length of Visible Light 10h 05m
Length of Day
9h 00m
Waxing Crescent, 45% of the Moon is Illuminated
Dec 19
Waxing Crescent
Dec 20
First Quarter
Dec 28
Full
Jan 4
Last Quarter
Jan 11
New

Hourly Weather History & Observations

Time (EST) Temp. Windchill Dew Point Humidity Pressure Visibility Wind Dir Wind Speed Gust Speed Precip Events Conditions
12:00 AM 30.2 °F - 30.2 °F 100% 29.79 in 10.0 mi Calm Calm - N/A   Overcast
1:00 AM 32 °F - 30 °F 90% 29.79 in 10 mi WSW 3.5 mph - -   Overcast
1:00 AM 32.0 °F 28.7 °F 30.2 °F 93% 29.79 in 10.0 mi WSW 3.5 mph - N/A   Overcast
2:00 AM 30.2 °F - 30.2 °F 100% 29.80 in 8.0 mi North 2.3 mph - N/A   Overcast
3:00 AM 32.0 °F 28.7 °F 30.2 °F 93% 29.82 in 5.0 mi North 3.5 mph - N/A   Overcast
4:00 AM 30.2 °F 24.3 °F 28.4 °F 93% 29.82 in 5.0 mi North 5.8 mph - N/A   Mostly Cloudy
5:00 AM 30.2 °F - 28.4 °F 93% 29.83 in 6.0 mi Calm Calm - N/A   Overcast
6:00 AM 30.2 °F 26.7 °F 30.2 °F 100% 29.88 in 6.0 mi West 3.5 mph - N/A   Overcast
7:00 AM 32 °F - 30 °F 91% 29.91 in 6 mi NW 3.5 mph - -   Overcast
7:00 AM 32.0 °F 27.5 °F 30.2 °F 93% 29.90 in 6.0 mi NNW 4.6 mph - N/A   Overcast
8:00 AM 32.0 °F 27.5 °F 30.2 °F 93% 29.92 in 4.0 mi North 4.6 mph - N/A   Mostly Cloudy
9:00 AM 33.8 °F 30.8 °F 32.0 °F 93% 29.94 in 4.0 mi South 3.5 mph - N/A   Overcast
10:00 AM 33.8 °F - 32.0 °F 93% 29.97 in 4.0 mi Calm Calm - N/A   Overcast
11:00 AM 35.6 °F 31.7 °F 33.8 °F 93% 30.01 in 4.0 mi WSW 4.6 mph - N/A   Light Drizzle
11:50 AM 35.6 °F 30.7 °F 33.8 °F 93% 30.02 in 4.0 mi WSW 5.8 mph - N/A   Overcast
12:00 PM 35.6 °F 31.7 °F 33.8 °F 93% 30.02 in 4.0 mi West 4.6 mph - N/A   Light Drizzle
1:00 PM 37 °F - 34 °F 84% 30.04 in 4 mi WSW 5.8 mph - -   Overcast
1:00 PM 37.4 °F 32.8 °F 33.8 °F 87% 30.04 in 4.0 mi West 5.8 mph - N/A   Light Drizzle
1:25 PM 37.4 °F 31.4 °F 33.8 °F 87% 30.04 in 6.0 mi WSW 8.1 mph - N/A   Overcast
2:00 PM 39.2 °F 33.6 °F 33.8 °F 81% 30.05 in 8.0 mi West 8.1 mph - N/A   Overcast
3:00 PM 41.0 °F 34.7 °F 33.8 °F 76% 30.06 in 10.0 mi West 10.4 mph - N/A   Mostly Cloudy
4:00 PM 39.2 °F 35.9 °F 32.0 °F 75% 30.08 in 15.0 mi NW 4.6 mph - N/A   Mostly Cloudy
5:00 PM 37.4 °F 34.9 °F 32.0 °F 81% 30.11 in 15.0 mi West 3.5 mph - N/A   Scattered Clouds
5:27 PM 35.6 °F - 30.2 °F 81% 30.12 in 15.0 mi Calm Calm - N/A   Mostly Cloudy
6:00 PM 33.8 °F - 30.2 °F 87% 30.13 in 15.0 mi Calm Calm - N/A   Scattered Clouds
7:00 PM 31 °F - 29 °F 92% 30.15 in 15 mi Calm Calm - -  
7:00 PM 32.0 °F - 30.2 °F 93% 30.15 in 15.0 mi Calm Calm - N/A   Partly Cloudy
8:00 PM 30.2 °F - 30.2 °F 100% 30.17 in 15.0 mi Calm Calm - N/A   Clear
9:00 PM 28.4 °F - 26.6 °F 93% 30.18 in 15.0 mi Calm Calm - N/A   Partly Cloudy
10:00 PM 28.4 °F 24.6 °F 28.4 °F 100% 30.17 in 10.0 mi ENE 3.5 mph - N/A   Mostly Cloudy
11:00 PM 30.2 °F - 28.4 °F 93% 30.17 in 8.0 mi Calm Calm - N/A   Mostly Cloudy